| time (UTC) | temp C | wind direction | speed KPH | gust KPH | rain 1hr cm | rain 24hr cm | rain mn cm | humidity % | barometer mb |
| 20260503223426 | 8 | 314 | 4.8 | 6.4 | 0.00 | 0.03 | 0.03 | 41 | 1010.6 |
| 20260503222425 | 9 | 295 | 4.8 | 11.3 | 0.00 | 0.03 | 0.03 | 42 | 1010.7 |
| 20260503221523 | 8 | 302 | 9.7 | 16.1 | 0.00 | 0.03 | 0.03 | 41 | 1010.7 |
| 20260503215624 | 9 | 315 | 1.6 | 4.8 | 0.00 | 0.03 | 0.03 | 41 | 1010.6 |
| 20260503214525 | 9 | 336 | 6.4 | 14.5 | 0.00 | 0.03 | 0.03 | 41 | 1010.5 |
| 20260503213624 | 9 | 231 | 3.2 | 6.4 | 0.00 | 0.05 | 0.03 | 40 | 1010.4 |
| 20260503212723 | 8 | 326 | 9.7 | 16.1 | 0.00 | 0.10 | 0.03 | 40 | 1010.5 |
| 20260503210725 | 10 | 313 | 1.6 | 9.7 | 0.00 | 0.10 | 0.03 | 40 | 1010.1 |
| 20260503204726 | 8 | 316 | 14.5 | 29.0 | 0.00 | 0.10 | 0.03 | 41 | 1010.1 |
| 20260503203726 | 8 | 298 | 6.4 | 12.9 | 0.00 | 0.10 | 0.03 | 40 | 1010.1 |
| 20260503202742 | 9 | 329 | 9.7 | 14.5 | 0.00 | 0.10 | 0.03 | 38 | 1009.9 |
| 20260503201824 | 9 | 272 | 8.0 | 12.9 | 0.00 | 0.10 | 0.03 | 40 | 1009.9 |
| 20260503201739 | 9 | 310 | 4.8 | 9.7 | 0.00 | 0.10 | 0.03 | 40 | 1010.1 |
| 20260503195743 | 9 | 316 | 9.7 | 14.5 | 0.00 | 0.10 | 0.03 | 39 | 1009.9 |
| 20260503194825 | 9 | 318 | 12.9 | 25.7 | 0.00 | 0.10 | 0.03 | 40 | 1009.7 |
| 20260503194724 | 9 | 325 | 14.5 | 24.1 | 0.00 | 0.10 | 0.03 | 40 | 1009.7 |
| 20260503192725 | 9 | 360 | 14.5 | 24.1 | 0.00 | 0.10 | 0.03 | 40 | 1009.7 |
| 20260503191725 | 9 | 278 | 14.5 | 29.0 | 0.00 | 0.10 | 0.03 | 41 | 1009.7 |
| 20260503190824 | 9 | 335 | 11.3 | 20.9 | 0.00 | 0.10 | 0.03 | 39 | 1009.7 |
| 20260503190724 | 9 | 318 | 6.4 | 11.3 | 0.00 | 0.10 | 0.03 | 40 | 1009.9 |
| 20260503185723 | 9 | 342 | 6.4 | 17.7 | 0.00 | 0.10 | 0.03 | 40 | 1009.5 |
| 20260503184725 | 9 | 347 | 8.0 | 16.1 | 0.00 | 0.10 | 0.03 | 39 | 1009.4 |
| 20260503182823 | 9 | 340 | 3.2 | 6.4 | 0.00 | 0.10 | 0.03 | 40 | 1009.6 |
| 20260503182725 | 9 | 347 | 4.8 | 12.9 | 0.00 | 0.10 | 0.03 | 40 | 1009.4 |
| 20260503181723 | 9 | 348 | 8.0 | 14.5 | 0.00 | 0.10 | 0.03 | 41 | 1009.7 |
| 20260503181623 | 9 | 5 | 6.4 | 12.9 | 0.00 | 0.10 | 0.03 | 41 | 1009.7 |
| 20260503180623 | 9 | 283 | 6.4 | 16.1 | 0.00 | 0.10 | 0.03 | 42 | 1009.8 |
| 20260503180524 | 9 | 320 | 6.4 | 11.3 | 0.00 | 0.10 | 0.03 | 41 | 1009.7 |
| 20260503175524 | 10 | 341 | 8.0 | 19.3 | 0.00 | 0.10 | 0.03 | 41 | 1009.6 |
| 20260503174526 | 10 | 346 | 8.0 | 12.9 | 0.00 | 0.10 | 0.03 | 42 | 1009.3 |
| 20260503173524 | 9 | 336 | 11.3 | 25.7 | 0.00 | 0.10 | 0.03 | 44 | 1009.3 |
| 20260503171526 | 10 | 286 | 14.5 | 22.5 | 0.00 | 0.10 | 0.03 | 45 | 1009.4 |
| 20260503150825 | 7 | 351 | 11.3 | 22.5 | 0.00 | 0.23 | 0.03 | 61 | 1009.7 |
| 20260503131126 | 5 | 342 | 6.4 | 11.3 | 0.00 | 0.23 | 0.03 | 80 | 1010.6 |
| 20260503130223 | 4 | 348 | 4.8 | 8.0 | 0.00 | 0.23 | 0.03 | 80 | 1010.6 |
| 20260503090225 | 3 | 316 | 6.4 | 9.7 | 0.00 | 0.41 | 0.00 | 89 | 1010.7 |
| 20260503080224 | 3 | 337 | 3.2 | 6.4 | 0.00 | 0.58 | 0.00 | 89 | 1011.5 |
| 20260503072224 | 3 | 343 | 3.2 | 4.8 | 0.00 | 0.61 | 0.00 | 90 | 1011.6 |
| 20260503071224 | 3 | 338 | 3.2 | 3.2 | 0.00 | 0.64 | 0.00 | 89 | 1011.7 |
| 20260503070225 | 3 | 336 | 3.2 | 4.8 | 0.00 | 0.64 | 0.00 | 91 | 1011.9 |
| 20260503060124 | 3 | 337 | 0.0 | 0.0 | 0.00 | 0.66 | 0.00 | 91 | 1012.5 |
| 20260503054124 | 3 | 360 | 0.0 | 0.0 | 0.00 | 0.66 | 0.00 | 91 | 1012.6 |
| 20260503053127 | 3 | 22 | 1.6 | 1.6 | 0.00 | 0.66 | 0.00 | 92 | 1012.7 |
| 20260503052223 | 3 | 22 | 3.2 | 3.2 | 0.00 | 0.66 | 0.00 | 91 | 1012.7 |
| 20260503051223 | 3 | 180 | 0.0 | 0.0 | 0.00 | 0.66 | 0.00 | 91 | 1013.1 |
| 20260503050225 | 3 | 180 | 0.0 | 0.0 | 0.00 | 0.66 | 0.00 | 91 | 1013.1 |
| 20260503045323 | 3 | 180 | 0.0 | 0.0 | 0.00 | 0.66 | 0.00 | 91 | 1013.1 |
| 20260503043325 | 3 | 22 | 0.0 | 0.0 | 0.00 | 0.66 | 0.00 | 90 | 1013.4 |
| 20260503042324 | 3 | 22 | 0.0 | 0.0 | 0.00 | 0.66 | 0.00 | 90 | 1013.4 |
| 20260503041324 | 4 | 22 | 0.0 | 0.0 | 0.00 | 0.66 | 0.00 | 88 | 1013.7 |
| 20260503041223 | 4 | 22 | 0.0 | 0.0 | 0.00 | 0.66 | 0.00 | 87 | 1013.8 |
| 20260503040239 | 4 | 337 | 0.0 | 0.0 | 0.00 | 0.66 | 0.00 | 88 | 1013.8 |
| 20260503040123 | 4 | 337 | 0.0 | 0.0 | 0.00 | 0.66 | 0.00 | 88 | 1013.7 |
| 20260503034129 | 4 | 180 | 3.2 | 4.8 | 0.00 | 0.66 | 0.66 | 86 | 1013.7 |
| 20260503033127 | 5 | 180 | 0.0 | 0.0 | 0.00 | 0.66 | 0.66 | 86 | 1013.8 |
| 20260503033029 | 5 | 180 | 0.0 | 0.0 | 0.00 | 0.66 | 0.66 | 86 | 1013.7 |
| 20260503032028 | 5 | 180 | 1.6 | 1.6 | 0.00 | 0.66 | 0.66 | 85 | 1013.9 |
| 20260503031929 | 5 | 180 | 1.6 | 1.6 | 0.00 | 0.66 | 0.66 | 85 | 1013.9 |
| 20260503024927 | 5 | 335 | 6.4 | 11.3 | 0.00 | 0.66 | 0.66 | 85 | 1013.8 |
| 20260503023928 | 5 | 327 | 4.8 | 8.0 | 0.00 | 0.66 | 0.66 | 86 | 1013.9 |
| 20260503022930 | 5 | 346 | 3.2 | 4.8 | 0.00 | 0.66 | 0.66 | 85 | 1013.9 |
| 20260503022827 | 5 | 350 | 4.8 | 6.4 | 0.00 | 0.66 | 0.66 | 86 | 1014.0 |
| 20260503022726 | 5 | 337 | 3.2 | 4.8 | 0.00 | 0.66 | 0.66 | 87 | 1014.0 |
| 20260503021628 | 5 | 320 | 4.8 | 8.0 | 0.00 | 0.66 | 0.66 | 88 | 1014.1 |
| 20260503021527 | 5 | 343 | 1.6 | 6.4 | 0.00 | 0.66 | 0.66 | 88 | 1014.1 |
| 20260503020527 | 5 | 337 | 1.6 | 3.2 | 0.00 | 0.66 | 0.66 | 89 | 1014.4 |
| 20260503015528 | 5 | 347 | 3.2 | 6.4 | 0.00 | 0.66 | 0.66 | 90 | 1014.2 |
| 20260503014528 | 5 | 348 | 0.0 | 3.2 | 0.00 | 0.66 | 0.66 | 90 | 1014.3 |
| 20260503013528 | 6 | 350 | 3.2 | 4.8 | 0.00 | 0.66 | 0.66 | 91 | 1014.1 |
| 20260503012527 | 6 | 180 | 1.6 | 3.2 | 0.00 | 0.66 | 0.66 | 90 | 1014.2 |
| 20260503012428 | 6 | 2 | 0.0 | 3.2 | 0.00 | 0.66 | 0.66 | 91 | 1014.2 |
| 20260503011428 | 6 | 157 | 0.0 | 0.0 | 0.00 | 0.66 | 0.66 | 91 | 1014.1 |
| 20260503011327 | 6 | 157 | 0.0 | 0.0 | 0.00 | 0.66 | 0.66 | 90 | 1014.2 |
| 20260503010327 | 6 | 157 | 0.0 | 0.0 | 0.00 | 0.66 | 0.66 | 91 | 1013.9 |
| 20260503005328 | 6 | 242 | 3.2 | 4.8 | 0.00 | 0.66 | 0.66 | 91 | 1013.8 |
| 20260503004343 | 6 | 112 | 0.0 | 0.0 | 0.00 | 0.66 | 0.66 | 91 | 1013.6 |
| 20260503002428 | 6 | 112 | 0.0 | 0.0 | 0.00 | 0.66 | 0.66 | 91 | 1013.6 |
| 20260503001527 | 6 | 112 | 0.0 | 0.0 | 0.00 | 0.66 | 0.66 | 90 | 1013.7 |
| 20260503000529 | 7 | 112 | 0.0 | 0.0 | 0.00 | 0.66 | 0.66 | 91 | 1013.5 |
| 20260502235626 | 7 | 180 | 0.0 | 0.0 | 0.00 | 0.66 | 0.66 | 91 | 1013.5 |
| 20260502233629 | 7 | 180 | 0.0 | 0.0 | 0.00 | 0.66 | 0.66 | 90 | 1013.3 |
| 20260502232727 | 7 | 180 | 0.0 | 0.0 | 0.00 | 0.66 | 0.66 | 91 | 1013.3 |
| 20260502231728 | 7 | 180 | 0.0 | 0.0 | 0.00 | 0.66 | 0.66 | 91 | 1013.3 |
| 20260502230727 | 7 | 180 | 0.0 | 0.0 | 0.00 | 0.66 | 0.66 | 90 | 1013.4 |
| 20260502225728 | 7 | 180 | 0.0 | 0.0 | 0.00 | 0.66 | 0.66 | 91 | 1013.3 |
| 20260502224729 | 7 | 180 | 0.0 | 0.0 | 0.00 | 0.66 | 0.66 | 91 | 1013.1 |